• In Germany
  • List of Countries
  • For 7 days
  • Water Temperature
  • Satellite Maps
  • Weather Map
  • Weather Widgets
  • user-avatar
    Login

    Hourly Weather Laszkar Gah

    Today, 11 December, Monday

    Time Temperature Precipitation Wind Pressure Humidity
    00:00 +8°C° 0 mm 2 mps 695 mmHg 22%
    01:00 +7°C° 0 mm 2 mps 695 mmHg 23%
    02:00 +7°C° 0 mm 2 mps 695 mmHg 25%
    03:00 +6°C° 0 mm 2 mps 695 mmHg 27%
    04:00 +6°C° 0 mm 2 mps 695 mmHg 30%
    05:00 +5°C° 0 mm 2 mps 695 mmHg 31%
    06:00 +5°C° 0 mm 2 mps 695 mmHg 32%
    07:00 +5°C° 0 mm 2 mps 695 mmHg 33%
    08:00 +7°C° 0 mm 2 mps 696 mmHg 30%
    09:00 +8°C° 0 mm 2 mps 696 mmHg 27%
    10:00 +10°C° 0 mm 2 mps 696 mmHg 23%
    11:00 +11°C° 0 mm 3 mps 696 mmHg 21%
    12:00 +12°C° 0 mm 3 mps 696 mmHg 19%
    13:00 +13°C° 0 mm 3 mps 695 mmHg 17%
    14:00 +13°C° 0 mm 3 mps 695 mmHg 17%
    15:00 +13°C° 0 mm 3 mps 695 mmHg 17%
    16:00 +13°C° 0 mm 3 mps 695 mmHg 16%
    17:00 +12°C° 0 mm 3 mps 695 mmHg 18%
    18:00 +10°C° 0 mm 3 mps 695 mmHg 20%
    19:00 +9°C° 0 mm 3 mps 695 mmHg 21%
    20:00 +8°C° 0 mm 3 mps 695 mmHg 22%
    21:00 +8°C° 0 mm 2 mps 695 mmHg 23%
    22:00 +7°C° 0 mm 2 mps 695 mmHg 25%
    23:00 +7°C° 0 mm 2 mps 694 mmHg 26%

    Tomorrow, 12 December, Tuesday

    Time Temperature Precipitation Wind Pressure Humidity
    00:00 +6°C° 0 mm 2 mps 694 mmHg 26%
    01:00 +6°C° 0 mm 2 mps 694 mmHg 27%
    02:00 +5°C° 0 mm 2 mps 694 mmHg 28%
    03:00 +5°C° 0 mm 2 mps 694 mmHg 29%
    04:00 +5°C° 0 mm 1 mps 694 mmHg 31%
    05:00 +4°C° 0 mm 2 mps 694 mmHg 31%
    06:00 +4°C° 0 mm 2 mps 694 mmHg 32%
    07:00 +4°C° 0 mm 2 mps 694 mmHg 33%
    08:00 +6°C° 0 mm 2 mps 695 mmHg 29%
    09:00 +7°C° 0 mm 2 mps 696 mmHg 26%
    10:00 +9°C° 0 mm 2 mps 696 mmHg 22%
    11:00 +10°C° 0 mm 2 mps 696 mmHg 20%
    12:00 +12°C° 0 mm 2 mps 695 mmHg 19%
    13:00 +13°C° 0 mm 2 mps 695 mmHg 17%
    14:00 +13°C° 0 mm 2 mps 695 mmHg 17%
    15:00 +13°C° 0 mm 2 mps 694 mmHg 17%
    16:00 +13°C° 0 mm 2 mps 694 mmHg 17%
    17:00 +12°C° 0 mm 2 mps 695 mmHg 18%
    18:00 +9°C° 0 mm 2 mps 695 mmHg 20%
    19:00 +8°C° 0 mm 2 mps 695 mmHg 22%
    20:00 +7°C° 0 mm 2 mps 695 mmHg 23%
    21:00 +7°C° 0 mm 2 mps 695 mmHg 24%
    22:00 +6°C° 0 mm 2 mps 696 mmHg 25%
    23:00 +6°C° 0 mm 2 mps 695 mmHg 26%

    Day after tomorrow, 13 December, Wednesday

    Time Temperature Precipitation Wind Pressure Humidity
    00:00 +5°C° 0 mm 2 mps 695 mmHg 27%
    01:00 +5°C° 0 mm 2 mps 695 mmHg 29%
    02:00 +4°C° 0 mm 2 mps 695 mmHg 30%
    03:00 +4°C° 0 mm 2 mps 695 mmHg 31%
    04:00 +3°C° 0 mm 2 mps 695 mmHg 33%
    05:00 +3°C° 0 mm 2 mps 696 mmHg 34%
    06:00 +2°C° 0 mm 2 mps 696 mmHg 35%
    07:00 +2°C° 0 mm 2 mps 697 mmHg 36%
    08:00 +3°C° 0 mm 2 mps 697 mmHg 33%
    09:00 +5°C° 0 mm 2 mps 698 mmHg 30%
    10:00 +6°C° 0 mm 2 mps 698 mmHg 27%
    11:00 +7°C° 0 mm 2 mps 698 mmHg 25%
    12:00 +8°C° 0 mm 2 mps 697 mmHg 23%
    13:00 +10°C° 0 mm 1 mps 697 mmHg 21%
    14:00 +10°C° 0 mm 1 mps 696 mmHg 21%
    15:00 +10°C° 0 mm 1 mps 696 mmHg 21%
    16:00 +11°C° 0 mm 1 mps 696 mmHg 21%
    17:00 +9°C° 0 mm 1 mps 696 mmHg 23%
    18:00 +8°C° 0 mm 1 mps 696 mmHg 25%
    19:00 +7°C° 0 mm 1 mps 696 mmHg 27%
    20:00 +7°C° 0 mm 1 mps 696 mmHg 28%
    21:00 +6°C° 0 mm 1 mps 696 mmHg 29%
    22:00 +6°C° 0 mm 1 mps 697 mmHg 30%
    23:00 +5°C° 0 mm 1 mps 696 mmHg 31%

    14 December, Thursday

    Time Temperature Precipitation Wind Pressure Humidity
    00:00 +5°C° 0 mm 1 mps 696 mmHg 32%
    01:00 +4°C° 0 mm 1 mps 696 mmHg 33%
    02:00 +4°C° 0 mm 1 mps 696 mmHg 34%
    03:00 +4°C° 0 mm 1 mps 696 mmHg 34%
    04:00 +4°C° 0 mm 1 mps 696 mmHg 35%
    05:00 +3°C° 0 mm 1 mps 697 mmHg 35%
    06:00 +3°C° 0 mm 1 mps 697 mmHg 35%
    07:00 +2°C° 0 mm 2 mps 698 mmHg 35%
    08:00 +4°C° 0 mm 2 mps 698 mmHg 31%
    09:00 +6°C° 0 mm 2 mps 699 mmHg 28%
    10:00 +7°C° 0 mm 2 mps 700 mmHg 24%
    11:00 +8°C° 0 mm 2 mps 699 mmHg 23%
    12:00 +9°C° 0 mm 2 mps 699 mmHg 21%
    13:00 +10°C° 0 mm 2 mps 698 mmHg 20%
    14:00 +11°C° 0 mm 1 mps 698 mmHg 20%
    15:00 +11°C° 0 mm 1 mps 698 mmHg 20%
    16:00 +11°C° 0 mm 1 mps 698 mmHg 20%
    17:00 +9°C° 0 mm 1 mps 698 mmHg 22%
    18:00 +8°C° 0 mm 1 mps 698 mmHg 25%
    19:00 +7°C° 0 mm 1 mps 699 mmHg 27%
    20:00 +6°C° 0 mm 1 mps 699 mmHg 28%
    21:00 +6°C° 0 mm 1 mps 699 mmHg 28%
    22:00 +6°C° 0 mm 1 mps 699 mmHg 29%
    23:00 +5°C° 0 mm 1 mps 699 mmHg 29%

    15 December, Friday

    Time Temperature Precipitation Wind Pressure Humidity
    00:00 +5°C° 0 mm 1 mps 699 mmHg 30%
    01:00 +4°C° 0 mm 2 mps 698 mmHg 30%
    02:00 +4°C° 0 mm 2 mps 698 mmHg 30%
    03:00 +4°C° 0 mm 2 mps 698 mmHg 30%
    04:00 +3°C° 0 mm 3 mps 698 mmHg 31%
    05:00 +3°C° 0 mm 3 mps 699 mmHg 31%
    06:00 +3°C° 0 mm 3 mps 699 mmHg 31%
    07:00 +3°C° 0 mm 3 mps 700 mmHg 31%
    08:00 +5°C° 0 mm 4 mps 700 mmHg 28%
    09:00 +6°C° 0 mm 4 mps 701 mmHg 24%
    10:00 +8°C° 0 mm 4 mps 701 mmHg 20%
    11:00 +10°C° 0 mm 4 mps 701 mmHg 19%
    12:00 +11°C° 0 mm 4 mps 700 mmHg 17%
    13:00 +12°C° 0 mm 3 mps 700 mmHg 16%
    14:00 +12°C° 0 mm 3 mps 699 mmHg 16%
    15:00 +12°C° 0 mm 3 mps 699 mmHg 16%
    16:00 +12°C° 0 mm 3 mps 699 mmHg 16%
    17:00 +11°C° 0 mm 3 mps 699 mmHg 17%
    18:00 +10°C° 0 mm 3 mps 699 mmHg 18%
    19:00 +9°C° 0 mm 3 mps 700 mmHg 19%
    20:00 +8°C° 0 mm 3 mps 700 mmHg 19%
    21:00 +7°C° 0 mm 4 mps 700 mmHg 20%
    22:00 +7°C° 0 mm 4 mps 700 mmHg 20%
    23:00 +6°C° 0 mm 4 mps 699 mmHg 20%

    16 December, Saturday

    Time Temperature Precipitation Wind Pressure Humidity
    00:00 +6°C° 0 mm 4 mps 699 mmHg 21%
    01:00 +6°C° 0 mm 4 mps 699 mmHg 21%
    02:00 +6°C° 0 mm 4 mps 699 mmHg 22%
    03:00 +6°C° 0 mm 4 mps 699 mmHg 22%
    04:00 +5°C° 0 mm 4 mps 699 mmHg 23%
    05:00 +5°C° 0 mm 4 mps 699 mmHg 23%
    06:00 +5°C° 0 mm 4 mps 699 mmHg 23%
    07:00 +6°C° 0 mm 4 mps 700 mmHg 23%
    08:00 +7°C° 0 mm 4 mps 700 mmHg 21%
    09:00 +10°C° 0 mm 4 mps 700 mmHg 18%
    10:00 +12°C° 0 mm 4 mps 701 mmHg 15%
    11:00 +13°C° 0 mm 4 mps 700 mmHg 14%
    12:00 +14°C° 0 mm 3 mps 700 mmHg 13%
    13:00 +16°C° 0 mm 3 mps 699 mmHg 12%
    14:00 +16°C° 0 mm 3 mps 699 mmHg 12%
    15:00 +16°C° 0 mm 2 mps 699 mmHg 13%
    16:00 +16°C° 0 mm 1 mps 699 mmHg 13%
    17:00 +15°C° 0 mm 1 mps 699 mmHg 14%
    18:00 +14°C° 0 mm 2 mps 699 mmHg 16%
    19:00 +13°C° 0 mm 2 mps 699 mmHg 17%
    20:00 +13°C° 0 mm 2 mps 699 mmHg 17%
    21:00 +13°C° 0 mm 2 mps 699 mmHg 17%
    22:00 +13°C° 0 mm 2 mps 699 mmHg 18%
    23:00 +12°C° 0 mm 3 mps 699 mmHg 18%
    Show more